| time (UTC) | temp F | wind direction | speed MPH | gust MPH | rain 1hr in | rain 24hr in | rain mn in | humidity % | barometer mb |
| 20260510131540 | 59 | 190 | 4.0 | 9.0 | 0.00 | 0.00 | 0.00 | 77 | 1019.8 |
| 20260510130036 | 59 | 190 | 3.0 | 11.0 | 0.00 | 0.00 | 0.00 | 79 | 1019.3 |
| 20260510124535 | 58 | 190 | 3.0 | 9.0 | 0.00 | 0.00 | 0.00 | 80 | 1019.0 |
| 20260510123029 | 58 | 190 | 5.0 | 9.0 | 0.00 | 0.00 | 0.00 | 80 | 1018.4 |
| 20260510121524 | 58 | 190 | 5.0 | 10.0 | 0.00 | 0.00 | 0.00 | 80 | 1017.5 |
| 20260510120023 | 58 | 190 | 3.0 | 10.0 | 0.00 | 0.00 | 0.00 | 80 | 1017.2 |
| 20260510114521 | 58 | 190 | 3.0 | 9.0 | 0.00 | 0.00 | 0.00 | 80 | 1016.7 |
| 20260510113017 | 59 | 190 | 5.0 | 11.0 | 0.00 | 0.00 | 0.00 | 80 | 1016.3 |
| 20260510111514 | 59 | 190 | 5.0 | 12.0 | 0.00 | 0.00 | 0.00 | 80 | 1016.4 |
| 20260510110011 | 59 | 190 | 4.0 | 11.0 | 0.00 | 0.00 | 0.00 | 78 | 1015.9 |
| 20260510104507 | 60 | 190 | 5.0 | 14.0 | 0.00 | 0.00 | 0.00 | 76 | 1016.1 |
| 20260510103002 | 63 | 190 | 6.0 | 13.0 | 0.00 | 0.00 | 0.00 | 73 | 1015.3 |
| 20260510101600 | 63 | 190 | 4.0 | 7.0 | 0.00 | 0.00 | 0.00 | 73 | 1016.7 |
| 20260510100115 | 64 | 190 | 2.0 | 5.0 | 0.00 | 0.00 | 0.00 | 72 | 1017.2 |
| 20260510094602 | 65 | 190 | 1.0 | 5.0 | 0.00 | 0.00 | 0.00 | 69 | 1016.8 |
| 20260510093057 | 65 | 190 | 0.0 | 9.0 | 0.00 | 0.00 | 0.00 | 69 | 1016.0 |
| 20260510091549 | 65 | 190 | 3.0 | 6.0 | 0.00 | 0.00 | 0.00 | 69 | 1014.7 |
| 20260510090053 | 65 | 190 | 0.0 | 5.0 | 0.00 | 0.00 | 0.00 | 69 | 1014.7 |
| 20260510084606 | 65 | 190 | 0.0 | 5.0 | 0.00 | 0.00 | 0.00 | 70 | 1014.0 |
| 20260510083041 | 65 | 190 | 2.0 | 8.0 | 0.00 | 0.00 | 0.00 | 71 | 1013.1 |
| 20260510081549 | 65 | 190 | 2.0 | 9.0 | 0.00 | 0.00 | 0.00 | 71 | 1012.5 |
| 20260510080039 | 65 | 190 | 0.0 | 6.0 | 0.00 | 0.00 | 0.00 | 70 | 1012.4 |
| 20260510074536 | 66 | 190 | 3.0 | 9.0 | 0.00 | 0.00 | 0.00 | 69 | 1012.8 |
| 20260510073032 | 67 | 190 | 3.0 | 11.0 | 0.00 | 0.00 | 0.00 | 68 | 1012.4 |
| 20260510071536 | 67 | 190 | 4.0 | 9.0 | 0.00 | 0.00 | 0.00 | 68 | 1012.2 |
| 20260510070036 | 68 | 190 | 2.0 | 7.0 | 0.00 | 0.00 | 0.00 | 67 | 1012.4 |
| 20260510064523 | 69 | 190 | 3.0 | 7.0 | 0.00 | 0.00 | 0.00 | 67 | 1012.9 |
| 20260510063020 | 70 | 190 | 2.0 | 4.0 | 0.00 | 0.00 | 0.00 | 66 | 1012.7 |
| 20260510061518 | 70 | 190 | 2.0 | 5.0 | 0.00 | 0.00 | 0.00 | 66 | 1012.4 |
| 20260510060015 | 71 | 190 | 0.0 | 3.0 | 0.00 | 0.00 | 0.00 | 64 | 1012.7 |
| 20260510054513 | 72 | 190 | 1.0 | 4.0 | 0.00 | 0.00 | 0.00 | 62 | 1012.3 |
| 20260510053009 | 72 | 190 | 0.0 | 0.0 | 0.00 | 0.00 | 0.00 | 61 | 1013.0 |
| 20260510051507 | 73 | 190 | 0.0 | 6.0 | 0.00 | 0.00 | 0.00 | 60 | 1013.2 |
| 20260510050005 | 73 | 190 | 1.0 | 4.0 | 0.00 | 0.00 | 0.00 | 60 | 1013.1 |
| 20260510044504 | 73 | 190 | 2.0 | 6.0 | 0.00 | 0.00 | 0.00 | 59 | 1012.6 |
| 20260510043004 | 74 | 190 | 2.0 | 4.0 | 0.00 | 0.00 | 0.00 | 58 | 1012.4 |
| 20260510041501 | 74 | 190 | 2.0 | 6.0 | 0.00 | 0.00 | 0.00 | 57 | 1011.5 |
| 20260510040104 | 75 | 190 | 2.0 | 8.0 | 0.00 | 0.00 | 0.00 | 56 | 1010.8 |
| 20260510034602 | 75 | 190 | 0.0 | 5.0 | 0.00 | 0.00 | 0.00 | 55 | 1010.4 |
| 20260510034501 | 75 | 190 | 0.0 | 5.0 | 0.00 | 0.00 | 0.00 | 54 | 1010.3 |
| 20260510033138 | 76 | 190 | 2.0 | 9.0 | 0.00 | 0.00 | 0.00 | 51 | 1010.2 |
| 20260510031620 | 76 | 190 | 1.0 | 5.0 | 0.00 | 0.00 | 0.00 | 39 | 1010.0 |
| 20260510024556 | 76 | 190 | 0.0 | 0.0 | 0.00 | 0.00 | 0.00 | 26 | 1009.0 |
| 20260510023055 | 77 | 190 | 0.0 | 1.0 | 0.00 | 0.00 | 0.00 | 25 | 1008.9 |
| 20260510021555 | 77 | 190 | 0.0 | 0.0 | 0.00 | 0.00 | 0.00 | 25 | 1008.5 |
| 20260510020054 | 78 | 190 | 0.0 | 0.0 | 0.00 | 0.00 | 0.00 | 24 | 1008.5 |
| 20260510014555 | 80 | 190 | 0.0 | 0.0 | 0.00 | 0.00 | 0.00 | 24 | 1008.2 |
| 20260510013053 | 81 | 190 | 0.0 | 0.0 | 0.00 | 0.00 | 0.00 | 23 | 1008.0 |
| 20260510011558 | 84 | 190 | 0.0 | 2.0 | 0.00 | 0.00 | 0.00 | 21 | 1007.8 |
| 20260510010058 | 86 | 190 | 4.0 | 8.0 | 0.00 | 0.00 | 0.00 | 19 | 1007.6 |
| 20260510004552 | 88 | 190 | 0.0 | 6.0 | 0.00 | 0.00 | 0.00 | 18 | 1007.5 |
| 20260510003051 | 90 | 190 | 2.0 | 5.0 | 0.00 | 0.00 | 0.00 | 15 | 1007.6 |
| 20260510001550 | 91 | 190 | 0.0 | 5.0 | 0.00 | 0.00 | 0.00 | 15 | 1007.7 |
| 20260510000103 | 91 | 190 | 1.0 | 8.0 | 0.00 | 0.00 | 0.00 | 14 | 1007.7 |
| 20260509234557 | 91 | 190 | 3.0 | 6.0 | 0.00 | 0.00 | 0.00 | 15 | 1007.9 |
| 20260509233049 | 90 | 190 | 4.0 | 9.0 | 0.00 | 0.00 | 0.00 | 16 | 1007.9 |
| 20260509231548 | 91 | 190 | 4.0 | 9.0 | 0.00 | 0.00 | 0.00 | 13 | 1008.0 |
| 20260509230045 | 91 | 190 | 6.0 | 10.0 | 0.00 | 0.00 | 0.00 | 14 | 1007.9 |
| 20260509224544 | 91 | 190 | 2.0 | 6.0 | 0.00 | 0.00 | 0.00 | 17 | 1007.8 |
| 20260509223044 | 91 | 190 | 3.0 | 5.0 | 0.00 | 0.00 | 0.00 | 17 | 1007.9 |
| 20260509221545 | 91 | 190 | 5.0 | 10.0 | 0.00 | 0.00 | 0.00 | 17 | 1007.9 |
| 20260509220040 | 91 | 190 | 0.0 | 4.0 | 0.00 | 0.00 | 0.00 | 17 | 1008.1 |
| 20260509214538 | 89 | 190 | 0.0 | 9.0 | 0.00 | 0.00 | 0.00 | 18 | 1008.2 |
| 20260509213040 | 90 | 190 | 0.0 | 8.0 | 0.00 | 0.00 | 0.00 | 17 | 1008.3 |
| 20260509211538 | 89 | 190 | 5.0 | 9.0 | 0.00 | 0.00 | 0.00 | 17 | 1008.6 |
| 20260509210040 | 90 | 190 | 4.0 | 11.0 | 0.00 | 0.00 | 0.00 | 16 | 1009.0 |
| 20260509204535 | 90 | 190 | 0.0 | 8.0 | 0.00 | 0.00 | 0.00 | 18 | 1009.2 |
| 20260509203029 | 90 | 190 | 6.0 | 11.0 | 0.00 | 0.00 | 0.00 | 19 | 1009.5 |
| 20260509201529 | 90 | 190 | 6.0 | 12.0 | 0.00 | 0.00 | 0.00 | 20 | 1009.6 |
| 20260509200023 | 89 | 190 | 3.0 | 11.0 | 0.00 | 0.00 | 0.00 | 21 | 1009.9 |
| 20260509194523 | 89 | 190 | 5.0 | 11.0 | 0.00 | 0.00 | 0.00 | 21 | 1010.1 |
| 20260509193016 | 89 | 190 | 5.0 | 11.0 | 0.00 | 0.00 | 0.00 | 23 | 1010.4 |
| 20260509191519 | 89 | 190 | 4.0 | 13.0 | 0.00 | 0.00 | 0.00 | 23 | 1010.6 |
| 20260509190013 | 87 | 190 | 0.0 | 8.0 | 0.00 | 0.00 | 0.00 | 24 | 1010.8 |
| 20260509184512 | 87 | 190 | 4.0 | 11.0 | 0.00 | 0.00 | 0.00 | 23 | 1011.3 |
| 20260509183010 | 87 | 190 | 6.0 | 11.0 | 0.00 | 0.00 | 0.00 | 22 | 1011.5 |
| 20260509181503 | 86 | 190 | 7.0 | 12.0 | 0.00 | 0.00 | 0.00 | 24 | 1011.8 |
| 20260509174559 | 85 | 190 | 7.0 | 16.0 | 0.00 | 0.00 | 0.00 | 25 | 1012.3 |
| 20260509173103 | 85 | 190 | 10.0 | 14.0 | 0.00 | 0.00 | 0.00 | 24 | 1012.7 |
| 20260509171552 | 85 | 190 | 9.0 | 21.0 | 0.00 | 0.00 | 0.00 | 23 | 1012.9 |
| 20260509170049 | 85 | 190 | 10.0 | 19.0 | 0.00 | 0.00 | 0.00 | 22 | 1013.1 |
| 20260509164545 | 83 | 190 | 9.0 | 19.0 | 0.00 | 0.00 | 0.00 | 21 | 1013.3 |
| 20260509163039 | 81 | 190 | 7.0 | 16.0 | 0.00 | 0.00 | 0.00 | 25 | 1013.5 |
| 20260509161535 | 76 | 190 | 4.0 | 9.0 | 0.00 | 0.00 | 0.00 | 38 | 1013.9 |
| 20260509160036 | 75 | 190 | 0.0 | 5.0 | 0.00 | 0.00 | 0.00 | 44 | 1013.9 |
| 20260509154529 | 72 | 190 | 0.0 | 2.0 | 0.00 | 0.00 | 0.00 | 47 | 1014.1 |
| 20260509153038 | 69 | 190 | 1.0 | 5.0 | 0.00 | 0.00 | 0.00 | 50 | 1014.5 |
| 20260509151522 | 69 | 190 | 3.0 | 5.0 | 0.00 | 0.00 | 0.00 | 50 | 1014.7 |
| 20260509150029 | 68 | 190 | 0.0 | 4.0 | 0.00 | 0.00 | 0.00 | 50 | 1014.7 |
| 20260509144526 | 66 | 190 | 1.0 | 5.0 | 0.00 | 0.00 | 0.00 | 52 | 1015.1 |
| 20260509143017 | 65 | 190 | 2.0 | 5.0 | 0.00 | 0.00 | 0.00 | 53 | 1015.1 |
| 20260509141514 | 63 | 190 | 1.0 | 4.0 | 0.00 | 0.00 | 0.00 | 53 | 1015.3 |
| 20260509140007 | 62 | 190 | 1.0 | 3.0 | 0.00 | 0.00 | 0.00 | 55 | 1015.4 |
| 20260509134506 | 60 | 190 | 1.0 | 3.0 | 0.00 | 0.00 | 0.00 | 58 | 1015.6 |
| 20260509133012 | 57 | 190 | 0.0 | 0.0 | 0.00 | 0.00 | 0.00 | 65 | 1015.8 |